Regional Weather Roundup
Issued by NWS

Home | Current Version | Previous Version | Text Only | Print | Product List | Glossary Off
Versions: 1 2 3 4 5 6 7 8 9 10 11 12 13 14 15 16 17 18 19 20 21 22 23 24 25 26 27 28 29 30 31 32 33 34 35 36 37 38 39 40 41 42 43 44 45 46 47 48 49 50

000
ASUS43 KIND 051059
RWRIN

WEATHER ROUNDUP FOR INDIANA
NATIONAL WEATHER SERVICE INDIANAPOLIS IN
700 AM EDT SUN JUL 05 2015

NOTE: "FAIR" INDICATES FEW OR NO CLOUDS BELOW 12,000 FEET WITH NO
SIGNIFICANT WEATHER AND/OR OBSTRUCTIONS TO VISIBILITY.

* - STATION DOES NOT REPORT WEATHER SUCH AS PRECIPITATION OR FOG.

+ - STATION NOT QUALITY CONTROLLED BY THE NATIONAL WEATHER SERVICE.
    USE DATA WITH CAUTION...ESPECIALLY DEWPOINT AND RELATIVE
    HUMIDITY OBSERVATIONS.

INZ001>003-010>013-019-020-051200-
NORTHWEST INDIANA

CITY           SKY/WX    TMP DP  RH WIND       PRES   REMARKS
GARY /AIRPORT/ PTCLDY   N/A N/A N/A CALM      30.08S FOG
RENSSELAER +     N/A     59  59 100 CALM      30.09S FOG

$$

LMZ046-743>745-051200-
SOUTHERN LAKE MICHIGAN

STATION/POSITION TIME  TEMP    WIND        PRES    WAVE
                       AIR SEA DIR/SP/G            HT
                 (UTC) (F)     (DEG/KT/KT) (MB)    (FT)
BURNS HARBOR     1000   66     190/  7/  8 1018.6S
MICHIGAN CITY    1000   68     150/  7/  9   N/A
5NW MICH CITY    1000   65 64  180/  4/  4   N/A     0

$$

INZ004-005-014>016-021>024-051200-
NORTH CENTRAL INDIANA

CITY           SKY/WX    TMP DP  RH WIND       PRES   REMARKS
GOSHEN         FOG       57  55  93 SE3       30.10S VSB 1/2
SOUTH BEND     CLEAR     60  56  86 CALM      30.09F FOG

$$

INZ006>009-017-018-025>027-051200-
NORTHEAST INDIANA

CITY           SKY/WX    TMP DP  RH WIND       PRES   REMARKS
ANGOLA *+        N/A     55  55 100 CALM      30.12R
FORT WAYNE     MOCLDY    59  57  93 CALM      30.12R FOG

$$

INZ028-029-035-036-043>045-051>053-051200-
WEST CENTRAL INDIANA

CITY           SKY/WX    TMP DP  RH WIND       PRES   REMARKS
CRAWFORDSVL +  PTCLDY    56  55  99 CALM      30.10R FOG
GREENCASTLE +  MOCLDY    61  55  82 CALM      30.11R HAZE
LAFAYETTE      FOG       59  58  96 CALM      30.09R VSB 1
TERRE HAUTE    PTCLDY    63  61  93 CALM      30.09R FOG

$$

INZ030>032-037>040-046>048-054>057-064-065-051200-
CENTRAL INDIANA

CITY           SKY/WX    TMP DP  RH WIND       PRES   REMARKS
GREENWOOD *+   CLOUDY    63  59  88 CALM      30.11R
INDIANAPOLIS   MOCLDY    65  59  81 CALM      30.09R HAZE
-EAGLE CREEK   MOCLDY    63  59  87 CALM      30.10R FOG
KOKOMO *+      CLEAR     59  55  88 CALM      30.10R
MT COMFORT *+  CLOUDY    59 N/A N/A CALM      30.11R
SHELBYVILLE    CLOUDY    63  59  87 E3        30.10R FOG

$$

INZ033-034-041-042-049-050-058-059-051200-
EAST CENTRAL INDIANA

CITY           SKY/WX    TMP DP  RH WIND       PRES   REMARKS
MUNCIE         MOCLDY    62  59  90 CALM      30.11R FOG

$$

INZ060-061-067>069-081>083-085>088-051200-
SOUTHWEST INDIANA

CITY           SKY/WX    TMP DP  RH WIND       PRES   REMARKS
EVANSVILLE     CLOUDY    70  67  90 NE3       30.06R FOG
HUNTINGBURG *+ CLOUDY    68  64  88 CALM      30.07R

$$

INZ062-063-066-070>080-084-089>092-051200-
SOUTH CENTRAL AND SOUTHEAST INDIANA

CITY           SKY/WX    TMP DP  RH WIND       PRES   REMARKS
BLOOMINGTON    CLOUDY    63  62  97 CALM      30.10R FOG
MADISON *+     MOCLDY    64  63  94 CALM      30.11R
SEYMOUR +      CLOUDY    68  64  88 CALM      30.08R

$$



USA.gov is the U.S. government's official web portal to all federal, state and local government web resources and services.